Location: Cahas Mountain Overlook
(37.0833°N, 80.1000°W)
Time: 06:56:23
(UTC-05:00)

Vanguard 2 Rocket - Pass Details

Date: 11 February 2026
Orbit: 553 x 3287 km, 32.9° (Epoch: 5 March)

Event Time Altitude Azimuth Distance (km) Brightness Sun altitude
Rises 20:28:33 0° 274° (W) 4,045 11.4 -30.8°
Reaches altitude 10° 20:32:36 10° 259° (WSW) 2,632 10.0 -31.7°
Maximum altitude 20:36:38 19° 215° (SW) 1,717 8.5 -32.4°
Enters shadow 20:36:48 19° 212° (SSW) 1,705 8.5 -32.5°
